| time (UTC) | temp F | wind direction | speed MPH | gust MPH | rain 1hr in | rain 24hr in | rain mn in | humidity % | barometer mb |
| 20260510082615 | 51 | 164 | 0.0 | 0.0 | 0.00 | 0.00 | 0.00 | 96 | 1013.0 |
| 20260510082111 | 51 | 164 | 0.0 | 0.0 | 0.00 | 0.00 | 0.00 | 96 | 1013.0 |
| 20260510081606 | 50 | 164 | 1.0 | 1.0 | 0.00 | 0.00 | 0.00 | 96 | 1013.1 |
| 20260510081102 | 51 | 163 | 0.0 | 1.0 | 0.00 | 0.00 | 0.00 | 96 | 1013.0 |
| 20260510080602 | 50 | 164 | 1.0 | 1.0 | 0.00 | 0.00 | 0.00 | 96 | 1013.0 |
| 20260510080058 | 50 | 163 | 0.0 | 1.0 | 0.00 | 0.00 | 0.00 | 96 | 1013.0 |
| 20260510075555 | 50 | 163 | 0.0 | 0.0 | 0.00 | 0.00 | 0.00 | 96 | 1013.0 |
| 20260510075052 | 50 | 163 | 0.0 | 0.0 | 0.00 | 0.00 | 0.00 | 96 | 1012.9 |
| 20260510074550 | 51 | 164 | 1.0 | 1.0 | 0.00 | 0.00 | 0.00 | 96 | 1012.7 |
| 20260510074045 | 51 | 163 | 2.0 | 2.0 | 0.00 | 0.00 | 0.00 | 96 | 1012.8 |
| 20260510073541 | 51 | 164 | 2.0 | 2.0 | 0.00 | 0.00 | 0.00 | 96 | 1012.8 |
| 20260510073039 | 51 | 163 | 1.0 | 1.0 | 0.00 | 0.00 | 0.00 | 96 | 1013.1 |
| 20260510072535 | 51 | 163 | 0.0 | 1.0 | 0.00 | 0.00 | 0.00 | 96 | 1013.0 |
| 20260510072031 | 51 | 164 | 0.0 | 0.0 | 0.00 | 0.00 | 0.00 | 96 | 1013.0 |
| 20260510071527 | 50 | 163 | 0.0 | 2.0 | 0.00 | 0.00 | 0.00 | 96 | 1012.9 |
| 20260510071026 | 51 | 164 | 0.0 | 1.0 | 0.00 | 0.00 | 0.00 | 96 | 1013.1 |
| 20260510070522 | 51 | 164 | 1.0 | 2.0 | 0.00 | 0.00 | 0.00 | 96 | 1013.1 |
| 20260510070019 | 51 | 163 | 2.0 | 2.0 | 0.00 | 0.00 | 0.00 | 96 | 1012.8 |
| 20260510065515 | 51 | 164 | 1.0 | 2.0 | 0.00 | 0.00 | 0.00 | 96 | 1013.0 |
| 20260510065011 | 51 | 164 | 0.0 | 0.0 | 0.00 | 0.00 | 0.00 | 96 | 1012.8 |
| 20260510064508 | 51 | 164 | 0.0 | 0.0 | 0.00 | 0.00 | 0.00 | 95 | 1013.0 |
| 20260510064005 | 50 | 164 | 0.0 | 0.0 | 0.00 | 0.00 | 0.00 | 95 | 1012.9 |
| 20260510063502 | 50 | 164 | 0.0 | 0.0 | 0.00 | 0.00 | 0.00 | 95 | 1013.0 |
| 20260510062959 | 51 | 164 | 0.0 | 0.0 | 0.00 | 0.00 | 0.00 | 94 | 1013.0 |
| 20260510062455 | 51 | 164 | 0.0 | 0.0 | 0.00 | 0.00 | 0.00 | 94 | 1013.0 |
| 20260510061949 | 52 | 164 | 0.0 | 0.0 | 0.00 | 0.00 | 0.00 | 94 | 1012.9 |
| 20260510061447 | 52 | 164 | 0.0 | 0.0 | 0.00 | 0.00 | 0.00 | 94 | 1012.9 |
| 20260510060943 | 52 | 164 | 0.0 | 0.0 | 0.00 | 0.00 | 0.00 | 94 | 1013.1 |
| 20260510060440 | 52 | 164 | 1.0 | 1.0 | 0.00 | 0.00 | 0.00 | 94 | 1013.0 |
| 20260510055936 | 52 | 164 | 0.0 | 0.0 | 0.00 | 0.00 | 0.00 | 94 | 1013.1 |
| 20260510055432 | 52 | 164 | 1.0 | 1.0 | 0.00 | 0.00 | 0.00 | 94 | 1013.0 |
| 20260510054925 | 52 | 164 | 1.0 | 2.0 | 0.00 | 0.00 | 0.00 | 95 | 1013.1 |
| 20260510054420 | 51 | 164 | 1.0 | 1.0 | 0.00 | 0.00 | 0.00 | 95 | 1013.0 |
| 20260510053915 | 52 | 164 | 0.0 | 0.0 | 0.00 | 0.00 | 0.00 | 95 | 1013.1 |
| 20260510053411 | 51 | 164 | 0.0 | 1.0 | 0.00 | 0.00 | 0.00 | 95 | 1013.0 |
| 20260510052908 | 51 | 164 | 1.0 | 1.0 | 0.00 | 0.00 | 0.00 | 95 | 1013.4 |
| 20260510052403 | 51 | 164 | 0.0 | 0.0 | 0.00 | 0.00 | 0.00 | 95 | 1013.5 |
| 20260510051900 | 51 | 164 | 0.0 | 0.0 | 0.00 | 0.00 | 0.00 | 95 | 1013.6 |
| 20260510051356 | 51 | 164 | 0.0 | 0.0 | 0.00 | 0.00 | 0.00 | 95 | 1013.6 |
| 20260510050853 | 51 | 164 | 0.0 | 0.0 | 0.00 | 0.00 | 0.00 | 95 | 1013.4 |
| 20260510050350 | 51 | 164 | 0.0 | 0.0 | 0.00 | 0.00 | 0.00 | 95 | 1013.6 |
| 20260510045847 | 51 | 164 | 0.0 | 0.0 | 0.00 | 0.00 | 0.00 | 95 | 1013.6 |
| 20260510045343 | 51 | 164 | 1.0 | 1.0 | 0.00 | 0.00 | 0.00 | 95 | 1013.4 |
| 20260510044841 | 51 | 164 | 0.0 | 0.0 | 0.00 | 0.00 | 0.00 | 95 | 1013.5 |
| 20260510044337 | 51 | 164 | 0.0 | 0.0 | 0.00 | 0.00 | 0.00 | 95 | 1013.4 |
| 20260510043834 | 51 | 164 | 0.0 | 0.0 | 0.00 | 0.00 | 0.00 | 94 | 1013.2 |
| 20260510043330 | 51 | 164 | 1.0 | 1.0 | 0.00 | 0.00 | 0.00 | 94 | 1013.5 |
| 20260510042828 | 51 | 164 | 0.0 | 1.0 | 0.00 | 0.00 | 0.00 | 94 | 1013.5 |
| 20260510042324 | 51 | 164 | 0.0 | 0.0 | 0.00 | 0.00 | 0.00 | 93 | 1013.5 |
| 20260510041820 | 51 | 164 | 0.0 | 0.0 | 0.00 | 0.00 | 0.00 | 93 | 1013.4 |
| 20260510041318 | 51 | 164 | 0.0 | 1.0 | 0.00 | 0.00 | 0.00 | 92 | 1013.4 |
| 20260510040815 | 52 | 164 | 0.0 | 1.0 | 0.00 | 0.00 | 0.00 | 92 | 1013.4 |
| 20260510040311 | 52 | 164 | 0.0 | 0.0 | 0.00 | 0.00 | 0.00 | 92 | 1013.4 |
| 20260510035807 | 52 | 164 | 1.0 | 2.0 | 0.00 | 0.00 | 0.00 | 92 | 1013.1 |
| 20260510035306 | 52 | 164 | 0.0 | 1.0 | 0.00 | 0.00 | 0.00 | 93 | 1012.8 |
| 20260510034758 | 51 | 163 | 0.0 | 2.0 | 0.00 | 0.00 | 0.00 | 94 | 1013.1 |
| 20260510034256 | 51 | 164 | 0.0 | 2.0 | 0.00 | 0.00 | 0.00 | 93 | 1012.9 |
| 20260510033753 | 51 | 164 | 2.0 | 3.0 | 0.00 | 0.00 | 0.00 | 92 | 1012.9 |
| 20260510033250 | 53 | 208 | 2.0 | 2.0 | 0.00 | 0.00 | 0.00 | 90 | 1012.8 |
| 20260510032746 | 53 | 208 | 0.0 | 0.0 | 0.00 | 0.00 | 0.00 | 89 | 1012.9 |
| 20260510032243 | 53 | 208 | 0.0 | 0.0 | 0.00 | 0.00 | 0.00 | 88 | 1012.8 |
| 20260510031738 | 54 | 208 | 0.0 | 0.0 | 0.00 | 0.00 | 0.00 | 87 | 1012.9 |
| 20260510031234 | 54 | 208 | 0.0 | 0.0 | 0.00 | 0.00 | 0.00 | 86 | 1012.8 |
| 20260510030733 | 54 | 208 | 0.0 | 1.0 | 0.00 | 0.00 | 0.00 | 86 | 1012.7 |
| 20260510030231 | 54 | 208 | 0.0 | 0.0 | 0.00 | 0.00 | 0.00 | 86 | 1012.6 |
| 20260510025728 | 55 | 208 | 0.0 | 3.0 | 0.00 | 0.00 | 0.00 | 84 | 1012.6 |
| 20260510025226 | 57 | 244 | 1.0 | 1.0 | 0.00 | 0.00 | 0.00 | 81 | 1012.6 |
| 20260510024722 | 57 | 245 | 1.0 | 3.0 | 0.00 | 0.00 | 0.00 | 80 | 1012.4 |
| 20260510024219 | 57 | 220 | 0.0 | 0.0 | 0.00 | 0.00 | 0.00 | 80 | 1012.3 |
| 20260510023714 | 57 | 223 | 1.0 | 4.0 | 0.00 | 0.00 | 0.00 | 79 | 1012.4 |
| 20260510023211 | 57 | 197 | 1.0 | 3.0 | 0.00 | 0.00 | 0.00 | 79 | 1012.5 |
| 20260510022707 | 57 | 232 | 2.0 | 2.0 | 0.00 | 0.00 | 0.00 | 80 | 1012.3 |
| 20260510022202 | 57 | 232 | 1.0 | 2.0 | 0.00 | 0.00 | 0.00 | 80 | 1012.3 |
| 20260510021657 | 57 | 232 | 0.0 | 1.0 | 0.00 | 0.00 | 0.00 | 81 | 1012.3 |
| 20260510021155 | 57 | 233 | 0.0 | 2.0 | 0.00 | 0.00 | 0.00 | 82 | 1012.2 |
| 20260510020650 | 56 | 233 | 0.0 | 1.0 | 0.00 | 0.00 | 0.00 | 82 | 1012.2 |
| 20260510020145 | 56 | 228 | 2.0 | 3.0 | 0.00 | 0.00 | 0.00 | 83 | 1012.3 |
| 20260510015642 | 56 | 229 | 0.0 | 1.0 | 0.00 | 0.00 | 0.00 | 84 | 1012.0 |
| 20260510015138 | 55 | 229 | 0.0 | 0.0 | 0.00 | 0.00 | 0.00 | 83 | 1012.1 |
| 20260510014638 | 56 | 229 | 0.0 | 0.0 | 0.00 | 0.00 | 0.00 | 82 | 1012.0 |
| 20260510014136 | 57 | 229 | 0.0 | 0.0 | 0.00 | 0.00 | 0.00 | 81 | 1012.0 |
| 20260510013631 | 57 | 229 | 0.0 | 0.0 | 0.00 | 0.00 | 0.00 | 79 | 1011.9 |
| 20260510013127 | 58 | 229 | 0.0 | 0.0 | 0.00 | 0.00 | 0.00 | 77 | 1011.9 |
| 20260510012626 | 59 | 208 | 0.0 | 2.0 | 0.00 | 0.00 | 0.00 | 76 | 1011.7 |
| 20260510012123 | 59 | 208 | 0.0 | 0.0 | 0.00 | 0.00 | 0.00 | 75 | 1011.7 |
| 20260510011622 | 59 | 208 | 0.0 | 0.0 | 0.00 | 0.00 | 0.00 | 75 | 1011.5 |
| 20260510011118 | 59 | 208 | 1.0 | 1.0 | 0.00 | 0.00 | 0.00 | 74 | 1011.6 |
| 20260510010615 | 60 | 208 | 0.0 | 1.0 | 0.00 | 0.00 | 0.00 | 74 | 1011.4 |
| 20260510010112 | 60 | 208 | 0.0 | 0.0 | 0.00 | 0.00 | 0.00 | 74 | 1011.2 |
| 20260510005607 | 61 | 208 | 0.0 | 0.0 | 0.00 | 0.00 | 0.00 | 72 | 1011.4 |
| 20260510005105 | 62 | 208 | 0.0 | 1.0 | 0.00 | 0.00 | 0.00 | 70 | 1011.2 |
| 20260510004603 | 62 | 208 | 2.0 | 3.0 | 0.00 | 0.00 | 0.00 | 68 | 1011.1 |
| 20260510004101 | 62 | 205 | 0.0 | 0.0 | 0.00 | 0.00 | 0.00 | 69 | 1011.1 |
| 20260510003557 | 63 | 205 | 1.0 | 2.0 | 0.00 | 0.00 | 0.00 | 67 | 1011.0 |
| 20260510003053 | 64 | 205 | 1.0 | 3.0 | 0.00 | 0.00 | 0.00 | 65 | 1010.8 |
| 20260510002548 | 64 | 232 | 2.0 | 2.0 | 0.00 | 0.00 | 0.00 | 65 | 1010.8 |
| 20260510002046 | 64 | 211 | 1.0 | 2.0 | 0.00 | 0.00 | 0.00 | 64 | 1010.7 |
| 20260510001543 | 64 | 248 | 0.0 | 2.0 | 0.00 | 0.00 | 0.00 | 64 | 1010.7 |
| 20260510001041 | 64 | 248 | 1.0 | 1.0 | 0.00 | 0.00 | 0.00 | 63 | 1010.6 |
| 20260510000537 | 65 | 247 | 2.0 | 2.0 | 0.00 | 0.00 | 0.00 | 63 | 1010.9 |
| 20260510000034 | 65 | 220 | 1.0 | 3.0 | 0.00 | 0.00 | 0.00 | 61 | 1010.7 |
| 20260509235530 | 66 | 238 | 0.0 | 2.0 | 0.00 | 0.00 | 0.00 | 61 | 1010.5 |
| 20260509235027 | 66 | 205 | 3.0 | 3.0 | 0.00 | 0.00 | 0.00 | 59 | 1010.5 |
| 20260509234523 | 67 | 194 | 2.0 | 4.0 | 0.00 | 0.00 | 0.00 | 58 | 1010.8 |
| 20260509234021 | 67 | 211 | 2.0 | 6.0 | 0.00 | 0.00 | 0.00 | 58 | 1010.6 |
| 20260509233518 | 67 | 235 | 2.0 | 3.0 | 0.00 | 0.00 | 0.00 | 58 | 1010.5 |
| 20260509233015 | 67 | 251 | 4.0 | 4.0 | 0.00 | 0.00 | 0.00 | 58 | 1010.5 |
| 20260509232512 | 67 | 217 | 3.0 | 4.0 | 0.00 | 0.00 | 0.00 | 59 | 1010.5 |
| 20260509232009 | 67 | 227 | 3.0 | 4.0 | 0.00 | 0.00 | 0.00 | 58 | 1010.2 |
| 20260509231505 | 67 | 200 | 4.0 | 11.0 | 0.00 | 0.00 | 0.00 | 57 | 1010.4 |
| 20260509231003 | 68 | 243 | 2.0 | 3.0 | 0.00 | 0.00 | 0.00 | 57 | 1010.2 |
| 20260509230459 | 68 | 236 | 1.0 | 4.0 | 0.00 | 0.00 | 0.00 | 58 | 1010.2 |
| 20260509225956 | 68 | 210 | 4.0 | 7.0 | 0.00 | 0.00 | 0.00 | 56 | 1010.4 |
| 20260509225452 | 68 | 239 | 2.0 | 6.0 | 0.00 | 0.00 | 0.00 | 57 | 1010.5 |
| 20260509224948 | 68 | 247 | 5.0 | 6.0 | 0.00 | 0.00 | 0.00 | 56 | 1010.5 |
| 20260509224443 | 68 | 215 | 3.0 | 11.0 | 0.00 | 0.00 | 0.00 | 56 | 1010.7 |
| 20260509223941 | 68 | 262 | 2.0 | 6.0 | 0.00 | 0.00 | 0.00 | 56 | 1010.6 |
| 20260509223437 | 67 | 249 | 3.0 | 6.0 | 0.00 | 0.00 | 0.00 | 56 | 1010.7 |
| 20260509222935 | 67 | 251 | 4.0 | 9.0 | 0.00 | 0.00 | 0.00 | 56 | 1010.5 |
| 20260509222430 | 68 | 269 | 3.0 | 6.0 | 0.00 | 0.00 | 0.00 | 55 | 1010.9 |
| 20260509221926 | 68 | 237 | 2.0 | 3.0 | 0.00 | 0.00 | 0.00 | 56 | 1010.8 |
| 20260509221423 | 69 | 268 | 2.0 | 4.0 | 0.00 | 0.00 | 0.00 | 53 | 1010.8 |
| 20260509220918 | 69 | 200 | 4.0 | 10.0 | 0.00 | 0.00 | 0.00 | 54 | 1010.7 |
| 20260509220415 | 69 | 272 | 4.0 | 6.0 | 0.00 | 0.00 | 0.00 | 54 | 1010.6 |
| 20260509215911 | 69 | 269 | 4.0 | 9.0 | 0.00 | 0.00 | 0.00 | 54 | 1010.5 |
| 20260509215406 | 69 | 277 | 3.0 | 9.0 | 0.00 | 0.00 | 0.00 | 53 | 1010.7 |
| 20260509214904 | 68 | 245 | 4.0 | 4.0 | 0.00 | 0.00 | 0.00 | 55 | 1010.7 |
| 20260509214401 | 68 | 234 | 3.0 | 6.0 | 0.00 | 0.00 | 0.00 | 56 | 1010.8 |
| 20260509213858 | 68 | 268 | 3.0 | 3.0 | 0.00 | 0.00 | 0.00 | 55 | 1010.7 |
| 20260509213354 | 68 | 246 | 3.0 | 7.0 | 0.00 | 0.00 | 0.00 | 56 | 1010.8 |
| 20260509212851 | 68 | 232 | 2.0 | 4.0 | 0.00 | 0.00 | 0.00 | 57 | 1010.7 |
| 20260509212343 | 69 | 232 | 4.0 | 6.0 | 0.00 | 0.00 | 0.00 | 54 | 1010.5 |
| 20260509211839 | 68 | 156 | 6.0 | 10.0 | 0.00 | 0.00 | 0.00 | 54 | 1010.7 |
| 20260509211335 | 68 | 265 | 3.0 | 4.0 | 0.00 | 0.00 | 0.00 | 57 | 1010.8 |
| 20260509210831 | 68 | 226 | 2.0 | 4.0 | 0.00 | 0.00 | 0.00 | 56 | 1010.7 |
| 20260509210329 | 67 | 264 | 2.0 | 3.0 | 0.00 | 0.00 | 0.00 | 56 | 1010.6 |
| 20260509205828 | 67 | 260 | 1.0 | 4.0 | 0.00 | 0.00 | 0.00 | 57 | 1010.7 |
| 20260509205323 | 67 | 271 | 4.0 | 6.0 | 0.00 | 0.00 | 0.00 | 56 | 1010.7 |
| 20260509204820 | 67 | 212 | 2.0 | 4.0 | 0.00 | 0.00 | 0.00 | 56 | 1010.7 |
| 20260509204316 | 68 | 259 | 4.0 | 6.0 | 0.00 | 0.00 | 0.00 | 54 | 1010.6 |
| 20260509203813 | 68 | 288 | 6.0 | 11.0 | 0.00 | 0.00 | 0.00 | 53 | 1010.4 |
| 20260509203310 | 69 | 237 | 3.0 | 7.0 | 0.00 | 0.00 | 0.00 | 53 | 1010.5 |
| 20260509202806 | 70 | 261 | 6.0 | 9.0 | 0.00 | 0.00 | 0.00 | 51 | 1010.4 |
| 20260509202306 | 68 | 271 | 2.0 | 3.0 | 0.00 | 0.00 | 0.00 | 55 | 1010.0 |
| 20260509201801 | 69 | 261 | 3.0 | 6.0 | 0.00 | 0.00 | 0.00 | 51 | 1010.2 |
| 20260509201259 | 69 | 226 | 2.0 | 10.0 | 0.00 | 0.00 | 0.00 | 50 | 1010.4 |
| 20260509200755 | 71 | 267 | 7.0 | 9.0 | 0.00 | 0.00 | 0.00 | 50 | 1010.4 |
| 20260509200250 | 71 | 252 | 3.0 | 4.0 | 0.00 | 0.00 | 0.00 | 51 | 1010.4 |
| 20260509195746 | 70 | 273 | 3.0 | 7.0 | 0.00 | 0.00 | 0.00 | 51 | 1010.4 |
| 20260509195242 | 69 | 196 | 3.0 | 6.0 | 0.00 | 0.00 | 0.00 | 53 | 1010.5 |
| 20260509194741 | 68 | 245 | 4.0 | 4.0 | 0.00 | 0.00 | 0.00 | 54 | 1010.6 |
| 20260509194238 | 68 | 265 | 4.0 | 8.0 | 0.00 | 0.00 | 0.00 | 54 | 1010.6 |
| 20260509193735 | 68 | 263 | 2.0 | 6.0 | 0.00 | 0.00 | 0.00 | 55 | 1010.6 |
| 20260509193234 | 68 | 271 | 5.0 | 9.0 | 0.00 | 0.00 | 0.00 | 55 | 1010.6 |
| 20260509192731 | 68 | 253 | 3.0 | 7.0 | 0.00 | 0.00 | 0.00 | 53 | 1010.6 |
| 20260509192226 | 69 | 213 | 3.0 | 4.0 | 0.00 | 0.00 | 0.00 | 53 | 1010.6 |
| 20260509191722 | 68 | 230 | 2.0 | 6.0 | 0.00 | 0.00 | 0.00 | 55 | 1010.6 |
| 20260509191219 | 68 | 211 | 3.0 | 3.0 | 0.00 | 0.00 | 0.00 | 53 | 1010.6 |
| 20260509190715 | 70 | 260 | 6.0 | 8.0 | 0.00 | 0.00 | 0.00 | 53 | 1010.6 |
| 20260509190212 | 68 | 267 | 5.0 | 6.0 | 0.00 | 0.00 | 0.00 | 52 | 1010.5 |
| 20260509185710 | 69 | 261 | 6.0 | 8.0 | 0.00 | 0.00 | 0.00 | 52 | 1010.5 |
| 20260509185205 | 69 | 270 | 2.0 | 3.0 | 0.00 | 0.00 | 0.00 | 58 | 1010.4 |
| 20260509184703 | 68 | 261 | 4.0 | 6.0 | 0.00 | 0.00 | 0.00 | 57 | 1010.5 |
| 20260509184200 | 68 | 260 | 4.0 | 7.0 | 0.00 | 0.00 | 0.00 | 53 | 1010.6 |
| 20260509183656 | 68 | 228 | 3.0 | 7.0 | 0.00 | 0.00 | 0.00 | 51 | 1010.6 |
| 20260509183151 | 68 | 257 | 4.0 | 6.0 | 0.00 | 0.00 | 0.00 | 55 | 1010.6 |
| 20260509182647 | 68 | 196 | 6.0 | 9.0 | 0.00 | 0.00 | 0.00 | 51 | 1010.5 |
| 20260509182145 | 68 | 143 | 4.0 | 8.0 | 0.00 | 0.00 | 0.00 | 53 | 1010.6 |
| 20260509181643 | 68 | 268 | 4.0 | 8.0 | 0.00 | 0.00 | 0.00 | 55 | 1010.6 |
| 20260509181140 | 70 | 236 | 6.0 | 8.0 | 0.00 | 0.00 | 0.00 | 54 | 1010.7 |
| 20260509180637 | 70 | 231 | 8.0 | 11.0 | 0.00 | 0.00 | 0.00 | 51 | 1010.7 |
| 20260509180133 | 69 | 187 | 4.0 | 8.0 | 0.00 | 0.00 | 0.00 | 55 | 1010.7 |
| 20260509175629 | 68 | 189 | 11.0 | 13.0 | 0.00 | 0.00 | 0.00 | 52 | 1010.7 |
| 20260509175126 | 67 | 258 | 4.0 | 7.0 | 0.00 | 0.00 | 0.00 | 55 | 1010.8 |
| 20260509174622 | 68 | 187 | 9.0 | 14.0 | 0.00 | 0.00 | 0.00 | 55 | 1010.9 |
| 20260509174117 | 67 | 256 | 2.0 | 9.0 | 0.00 | 0.00 | 0.00 | 60 | 1011.0 |
| 20260509173613 | 67 | 265 | 3.0 | 8.0 | 0.00 | 0.00 | 0.00 | 58 | 1010.8 |
| 20260509173109 | 66 | 249 | 3.0 | 8.0 | 0.00 | 0.00 | 0.00 | 61 | 1010.9 |
| 20260509172606 | 66 | 249 | 3.0 | 7.0 | 0.00 | 0.00 | 0.00 | 60 | 1011.0 |
| 20260509172102 | 66 | 259 | 4.0 | 9.0 | 0.00 | 0.00 | 0.00 | 60 | 1011.1 |
| 20260509171558 | 66 | 273 | 5.0 | 9.0 | 0.00 | 0.00 | 0.00 | 59 | 1010.9 |
| 20260509171054 | 66 | 162 | 7.0 | 14.0 | 0.00 | 0.00 | 0.00 | 58 | 1011.2 |
| 20260509170550 | 66 | 201 | 5.0 | 6.0 | 0.00 | 0.00 | 0.00 | 60 | 1011.1 |
| 20260509170046 | 66 | 193 | 5.0 | 6.0 | 0.00 | 0.00 | 0.00 | 57 | 1011.2 |
| 20260509165545 | 66 | 263 | 3.0 | 8.0 | 0.00 | 0.00 | 0.00 | 60 | 1011.2 |
| 20260509165040 | 65 | 260 | 2.0 | 3.0 | 0.00 | 0.00 | 0.00 | 61 | 1011.5 |
| 20260509164537 | 65 | 227 | 4.0 | 7.0 | 0.00 | 0.00 | 0.00 | 60 | 1011.2 |
| 20260509164032 | 65 | 258 | 3.0 | 7.0 | 0.00 | 0.00 | 0.00 | 62 | 1011.3 |
| 20260509163532 | 64 | 193 | 5.0 | 7.0 | 0.00 | 0.00 | 0.00 | 60 | 1011.3 |
| 20260509163032 | 64 | 244 | 2.0 | 3.0 | 0.00 | 0.00 | 0.00 | 59 | 1011.2 |
| 20260509162529 | 64 | 255 | 3.0 | 3.0 | 0.00 | 0.00 | 0.00 | 62 | 1011.3 |
| 20260509162025 | 64 | 260 | 4.0 | 6.0 | 0.00 | 0.00 | 0.00 | 61 | 1011.4 |
| 20260509161522 | 63 | 223 | 4.0 | 6.0 | 0.00 | 0.00 | 0.00 | 59 | 1011.5 |
| 20260509161022 | 63 | 242 | 2.0 | 3.0 | 0.00 | 0.00 | 0.00 | 62 | 1011.5 |
| 20260509160518 | 63 | 199 | 5.0 | 7.0 | 0.00 | 0.00 | 0.00 | 60 | 1011.6 |
| 20260509160014 | 63 | 272 | 4.0 | 6.0 | 0.00 | 0.00 | 0.00 | 59 | 1011.7 |
| 20260509155510 | 63 | 245 | 1.0 | 6.0 | 0.00 | 0.00 | 0.00 | 59 | 1011.6 |
| 20260509155006 | 63 | 223 | 6.0 | 10.0 | 0.00 | 0.00 | 0.00 | 60 | 1011.5 |
| 20260509154502 | 63 | 216 | 3.0 | 4.0 | 0.00 | 0.00 | 0.00 | 61 | 1011.4 |
| 20260509154000 | 62 | 220 | 3.0 | 7.0 | 0.00 | 0.00 | 0.00 | 59 | 1011.3 |
| 20260509153457 | 62 | 260 | 1.0 | 4.0 | 0.00 | 0.00 | 0.00 | 61 | 1011.3 |
| 20260509152953 | 62 | 246 | 2.0 | 4.0 | 0.00 | 0.00 | 0.00 | 60 | 1011.3 |
| 20260509152449 | 62 | 208 | 2.0 | 4.0 | 0.00 | 0.00 | 0.00 | 60 | 1011.5 |
| 20260509151946 | 62 | 276 | 3.0 | 3.0 | 0.00 | 0.00 | 0.00 | 57 | 1011.3 |
| 20260509151442 | 62 | 276 | 2.0 | 3.0 | 0.00 | 0.00 | 0.00 | 59 | 1011.3 |
| 20260509150941 | 62 | 248 | 4.0 | 6.0 | 0.00 | 0.00 | 0.00 | 56 | 1011.6 |
| 20260509150438 | 63 | 246 | 2.0 | 3.0 | 0.00 | 0.00 | 0.00 | 57 | 1011.4 |
| 20260509145936 | 64 | 249 | 3.0 | 4.0 | 0.00 | 0.00 | 0.00 | 55 | 1011.6 |
| 20260509145431 | 62 | 253 | 2.0 | 3.0 | 0.00 | 0.00 | 0.00 | 57 | 1011.5 |
| 20260509144927 | 61 | 247 | 2.0 | 4.0 | 0.00 | 0.00 | 0.00 | 57 | 1011.5 |
| 20260509144424 | 61 | 249 | 2.0 | 3.0 | 0.00 | 0.00 | 0.00 | 58 | 1011.7 |
| 20260509143921 | 61 | 246 | 2.0 | 3.0 | 0.00 | 0.00 | 0.00 | 58 | 1011.8 |
| 20260509143418 | 61 | 239 | 2.0 | 4.0 | 0.00 | 0.00 | 0.00 | 58 | 1011.8 |
| 20260509142915 | 61 | 224 | 2.0 | 6.0 | 0.00 | 0.00 | 0.00 | 57 | 1011.8 |
| 20260509142411 | 62 | 249 | 2.0 | 4.0 | 0.00 | 0.00 | 0.00 | 56 | 1011.4 |
| 20260509141907 | 62 | 205 | 4.0 | 7.0 | 0.00 | 0.00 | 0.00 | 55 | 1011.4 |
| 20260509141404 | 62 | 265 | 2.0 | 4.0 | 0.00 | 0.00 | 0.00 | 56 | 1011.4 |
| 20260509140901 | 63 | 266 | 3.0 | 4.0 | 0.00 | 0.00 | 0.00 | 57 | 1011.2 |
| 20260509140357 | 63 | 309 | 1.0 | 2.0 | 0.00 | 0.00 | 0.00 | 61 | 1011.1 |
| 20260509135855 | 64 | 309 | 3.0 | 4.0 | 0.00 | 0.00 | 0.00 | 57 | 1011.2 |
| 20260509135353 | 64 | 343 | 2.0 | 2.0 | 0.00 | 0.00 | 0.00 | 58 | 1011.4 |
| 20260509134850 | 63 | 344 | 2.0 | 3.0 | 0.00 | 0.00 | 0.00 | 61 | 1011.2 |
| 20260509134347 | 62 | 344 | 0.0 | 1.0 | 0.00 | 0.00 | 0.00 | 66 | 1011.2 |
| 20260509133844 | 61 | 344 | 0.0 | 2.0 | 0.00 | 0.00 | 0.00 | 67 | 1011.3 |
| 20260509133341 | 61 | 344 | 0.0 | 1.0 | 0.00 | 0.00 | 0.00 | 65 | 1011.3 |
| 20260509132840 | 61 | 344 | 2.0 | 3.0 | 0.00 | 0.00 | 0.00 | 64 | 1011.2 |
| 20260509132337 | 61 | 344 | 1.0 | 1.0 | 0.00 | 0.00 | 0.00 | 64 | 1011.1 |
| 20260509131834 | 61 | 344 | 0.0 | 1.0 | 0.00 | 0.00 | 0.00 | 66 | 1011.2 |
| 20260509131331 | 61 | 344 | 0.0 | 1.0 | 0.00 | 0.00 | 0.00 | 62 | 1011.2 |
| 20260509130827 | 60 | 344 | 0.0 | 1.0 | 0.00 | 0.00 | 0.00 | 65 | 1011.4 |
| 20260509130323 | 60 | 344 | 2.0 | 2.0 | 0.00 | 0.00 | 0.00 | 64 | 1011.4 |
| 20260509125820 | 58 | 344 | 0.0 | 1.0 | 0.00 | 0.00 | 0.00 | 72 | 1011.5 |
| 20260509125316 | 59 | 344 | 0.0 | 0.0 | 0.00 | 0.00 | 0.00 | 72 | 1011.7 |
| 20260509124813 | 58 | 344 | 0.0 | 1.0 | 0.00 | 0.00 | 0.00 | 73 | 1011.7 |
| 20260509124309 | 58 | 344 | 0.0 | 0.0 | 0.00 | 0.00 | 0.00 | 73 | 1011.4 |
| 20260509123808 | 57 | 344 | 0.0 | 2.0 | 0.00 | 0.00 | 0.00 | 73 | 1011.6 |
| 20260509123305 | 57 | 344 | 0.0 | 0.0 | 0.00 | 0.00 | 0.00 | 75 | 1011.5 |
| 20260509122800 | 56 | 344 | 0.0 | 0.0 | 0.00 | 0.00 | 0.00 | 74 | 1011.6 |
| 20260509122257 | 56 | 344 | 0.0 | 0.0 | 0.00 | 0.00 | 0.00 | 77 | 1011.6 |
| 20260509121754 | 55 | 344 | 0.0 | 0.0 | 0.00 | 0.00 | 0.00 | 78 | 1011.6 |
| 20260509121251 | 55 | 344 | 0.0 | 0.0 | 0.00 | 0.00 | 0.00 | 80 | 1011.6 |
| 20260509120750 | 55 | 344 | 1.0 | 2.0 | 0.00 | 0.00 | 0.00 | 83 | 1011.5 |
| 20260509120247 | 54 | 344 | 0.0 | 2.0 | 0.00 | 0.00 | 0.00 | 81 | 1011.6 |
| 20260509115745 | 54 | 344 | 0.0 | 0.0 | 0.00 | 0.00 | 0.00 | 84 | 1011.6 |
| 20260509115241 | 53 | 344 | 1.0 | 2.0 | 0.00 | 0.00 | 0.00 | 83 | 1011.7 |
| 20260509114740 | 53 | 344 | 0.0 | 0.0 | 0.00 | 0.00 | 0.00 | 86 | 1011.8 |
| 20260509114238 | 52 | 344 | 0.0 | 0.0 | 0.00 | 0.00 | 0.00 | 86 | 1011.6 |
| 20260509113737 | 52 | 344 | 0.0 | 0.0 | 0.00 | 0.00 | 0.00 | 88 | 1011.5 |
| 20260509113233 | 52 | 344 | 0.0 | 0.0 | 0.00 | 0.00 | 0.00 | 88 | 1011.6 |
| 20260509112730 | 52 | 344 | 0.0 | 1.0 | 0.00 | 0.00 | 0.00 | 87 | 1011.6 |
| 20260509112227 | 52 | 344 | 0.0 | 0.0 | 0.00 | 0.00 | 0.00 | 86 | 1011.5 |
| 20260509111724 | 52 | 344 | 0.0 | 0.0 | 0.00 | 0.00 | 0.00 | 83 | 1011.5 |
| 20260509111221 | 51 | 344 | 0.0 | 0.0 | 0.00 | 0.00 | 0.00 | 81 | 1011.5 |
| 20260509110719 | 52 | 344 | 0.0 | 0.0 | 0.00 | 0.00 | 0.00 | 85 | 1011.5 |
| 20260509110215 | 51 | 344 | 0.0 | 1.0 | 0.00 | 0.00 | 0.00 | 83 | 1011.6 |
| 20260509105713 | 51 | 344 | 1.0 | 1.0 | 0.00 | 0.00 | 0.00 | 86 | 1011.3 |
| 20260509105211 | 51 | 344 | 0.0 | 1.0 | 0.00 | 0.00 | 0.00 | 86 | 1011.3 |
| 20260509104707 | 51 | 344 | 1.0 | 1.0 | 0.00 | 0.00 | 0.00 | 87 | 1011.5 |
| 20260509104204 | 51 | 344 | 0.0 | 0.0 | 0.00 | 0.00 | 0.00 | 88 | 1011.6 |
| 20260509103702 | 51 | 344 | 0.0 | 0.0 | 0.00 | 0.00 | 0.00 | 87 | 1011.5 |
| 20260509103159 | 51 | 344 | 0.0 | 0.0 | 0.00 | 0.00 | 0.00 | 84 | 1011.3 |
| 20260509102658 | 52 | 344 | 0.0 | 0.0 | 0.00 | 0.00 | 0.00 | 82 | 1011.3 |
| 20260509102154 | 51 | 344 | 0.0 | 0.0 | 0.00 | 0.00 | 0.00 | 81 | 1011.4 |
| 20260509101650 | 51 | 344 | 0.0 | 0.0 | 0.00 | 0.00 | 0.00 | 81 | 1011.4 |
| 20260509101147 | 51 | 344 | 0.0 | 0.0 | 0.00 | 0.00 | 0.00 | 83 | 1011.3 |
| 20260509100644 | 51 | 344 | 0.0 | 0.0 | 0.00 | 0.00 | 0.00 | 84 | 1011.3 |
| 20260509100141 | 51 | 344 | 0.0 | 0.0 | 0.00 | 0.00 | 0.00 | 84 | 1011.4 |
| 20260509095637 | 51 | 344 | 0.0 | 0.0 | 0.00 | 0.00 | 0.00 | 85 | 1011.2 |
| 20260509095135 | 53 | 344 | 1.0 | 1.0 | 0.00 | 0.00 | 0.00 | 84 | 1011.3 |
| 20260509094631 | 54 | 344 | 0.0 | 1.0 | 0.00 | 0.00 | 0.00 | 82 | 1011.3 |
| 20260509094128 | 53 | 344 | 2.0 | 3.0 | 0.00 | 0.00 | 0.00 | 71 | 1011.0 |
| 20260509093627 | 54 | 344 | 3.0 | 3.0 | 0.00 | 0.00 | 0.00 | 73 | 1011.2 |
| 20260509093124 | 54 | 344 | 3.0 | 4.0 | 0.00 | 0.00 | 0.00 | 70 | 1011.5 |
| 20260509092622 | 53 | 247 | 1.0 | 2.0 | 0.00 | 0.00 | 0.00 | 73 | 1011.2 |
| 20260509092120 | 52 | 247 | 1.0 | 1.0 | 0.00 | 0.00 | 0.00 | 77 | 1011.4 |
| 20260509091617 | 52 | 247 | 0.0 | 0.0 | 0.00 | 0.00 | 0.00 | 81 | 1011.1 |
| 20260509091113 | 52 | 247 | 0.0 | 0.0 | 0.00 | 0.00 | 0.00 | 81 | 1011.4 |
| 20260509090611 | 52 | 247 | 0.0 | 0.0 | 0.00 | 0.00 | 0.00 | 82 | 1011.3 |
| 20260509090108 | 52 | 247 | 0.0 | 0.0 | 0.00 | 0.00 | 0.00 | 81 | 1011.3 |
| 20260509085606 | 52 | 247 | 0.0 | 0.0 | 0.00 | 0.00 | 0.00 | 82 | 1011.3 |
| 20260509085101 | 52 | 247 | 0.0 | 0.0 | 0.00 | 0.00 | 0.00 | 81 | 1011.4 |
| 20260509084559 | 52 | 247 | 0.0 | 0.0 | 0.00 | 0.00 | 0.00 | 80 | 1011.5 |
| 20260509084056 | 52 | 247 | 0.0 | 0.0 | 0.00 | 0.00 | 0.00 | 78 | 1011.3 |
| 20260509083553 | 52 | 247 | 0.0 | 0.0 | 0.00 | 0.00 | 0.00 | 81 | 1011.3 |
| 20260509083050 | 53 | 247 | 0.0 | 0.0 | 0.00 | 0.00 | 0.00 | 82 | 1011.5 |